Weather History for KFRG - March, 2013

Change the Weather History Date:

Sunday, March 17, 2013

  Actual Average Record
Temperature  
Mean Temperature 34 °F -  
Max Temperature 37 °F 44 °F 68 °F (2003)
Min Temperature 30 °F 30 °F 21 °F (1997)
Degree Days  
Heating Degree Days 32    
Moisture  
Dew Point 19 °F    
Average Humidity 58    
Maximum Humidity 86    
Minimum Humidity 34    
Precipitation  
Precipitation 0.00 in - - ()
Sea Level Pressure  
Sea Level Pressure 30.10 in    
Wind  
Wind Speed 7 mph (NNW)    
Max Wind Speed 13 mph    
Max Gust Speed 18 mph    
Visibility 10 miles    
Events      
Averages and records for this station are not official NWS values.
T = Trace of Precipitation, MM = Missing Value Source: NWS Daily Summary

Daily Weather History Graph

Daily Weather History Graph

Search for Another Location

Airport or City:

Trip Planner

Search our weather history database for the weather conditions in past years. The results will help you decide how hot, cold, wet, or windy it might be!

Date:

Astronomy

Mar. 17, 2013 Rise Set
Actual Time 7:01 AM EDT 7:02 PM EDT
Civil Twilight 6:34 AM EDT 7:30 PM EDT
Nautical Twilight 6:02 AM EDT 8:02 PM EDT
Astronomical Twilight 5:30 AM EDT 8:34 PM EDT
Moon 10:10 AM EDT (3/17) 12:10 AM EDT (3/17)
Length of Visible Light 12h 55m
Length of Day
12h 01m
Waxing Crescent, 31% of the Moon is Illuminated
Mar 17
Waxing Crescent
Mar 19
First Quarter
Mar 27
Full
Apr 3
Last Quarter
Apr 10
New

Hourly Weather History & Observations

Time (EDT) Temp. Windchill Dew Point Humidity Pressure Visibility Wind Dir Wind Speed Gust Speed Precip Events Conditions
12:53 AM 33.1 °F 27.7 °F 28.9 °F 85% 29.92 in 10.0 mi NNW 5.8 mph - N/A   Overcast
1:53 AM 33.1 °F 30.0 °F 28.0 °F 82% 29.92 in 10.0 mi NNW 3.5 mph - N/A   Partly Cloudy
2:53 AM 32.0 °F 28.7 °F 28.0 °F 85% 29.93 in 10.0 mi NNW 3.5 mph - N/A   Clear
3:53 AM 30.9 °F 26.2 °F 27.0 °F 85% 29.95 in 10.0 mi NNW 4.6 mph - N/A   Clear
4:53 AM 30.9 °F 26.2 °F 27.0 °F 85% 29.97 in 10.0 mi NNW 4.6 mph - N/A   Scattered Clouds
6:21 AM 30.2 °F 25.4 °F 26.6 °F 86% 30.00 in 10.0 mi NW 4.6 mph - N/A   Mostly Cloudy
6:50 AM 30.2 °F 21.9 °F 23.0 °F 75% 30.01 in 10.0 mi NNW 9.2 mph - N/A   Partly Cloudy
6:53 AM 30.0 °F 23.2 °F 23.0 °F 75% 30.01 in 10.0 mi NNW 6.9 mph - N/A   Partly Cloudy
7:53 AM 30.0 °F 20.5 °F 19.9 °F 66% 30.07 in 10.0 mi NW 11.5 mph 18.4 mph N/A   Partly Cloudy
8:38 AM 30.2 °F 21.9 °F 19.4 °F 64% 30.08 in 10.0 mi NW 9.2 mph - N/A   Mostly Cloudy
8:53 AM 30.9 °F 22.8 °F 19.0 °F 61% 30.09 in 10.0 mi NNW 9.2 mph - N/A   Overcast
9:22 AM 32.0 °F 24.8 °F 19.4 °F 60% 30.11 in 10.0 mi NW 8.1 mph - N/A   Scattered Clouds
9:53 AM 33.1 °F 26.1 °F 21.0 °F 61% 30.11 in 10.0 mi NNW 8.1 mph - N/A   Partly Cloudy
10:53 AM 34.0 °F 28.0 °F 19.9 °F 56% 30.12 in 10.0 mi Variable 6.9 mph - N/A   Partly Cloudy
11:53 AM 34.0 °F 26.6 °F 18.0 °F 52% 30.12 in 10.0 mi North 9.2 mph 16.1 mph N/A   Clear
12:53 PM 35.1 °F 27.4 °F 17.1 °F 48% 30.12 in 10.0 mi NW 10.4 mph - N/A   Clear
1:53 PM 35.1 °F 26.4 °F 12.9 °F 40% 30.13 in 10.0 mi NNW 12.7 mph - N/A   Clear
2:53 PM 36.0 °F 29.0 °F 14.0 °F 41% 30.13 in 10.0 mi NW 9.2 mph 18.4 mph N/A   Clear
3:53 PM 36.0 °F 28.0 °F 14.0 °F 41% 30.14 in 10.0 mi NNW 11.5 mph 17.3 mph N/A   Clear
4:53 PM 37.0 °F 31.6 °F 15.1 °F 41% 30.14 in 10.0 mi WNW 6.9 mph - N/A   Clear
5:53 PM 37.0 °F 31.0 °F 12.0 °F 36% 30.16 in 10.0 mi NNW 8.1 mph - N/A   Clear
6:53 PM 37.0 °F 32.4 °F 10.9 °F 34% 30.19 in 10.0 mi NW 5.8 mph - N/A   Clear
7:53 PM 36.0 °F 32.1 °F 12.0 °F 37% 30.22 in 10.0 mi NW 4.6 mph - N/A   Clear
8:53 PM 35.1 °F 31.0 °F 12.9 °F 40% 30.25 in 10.0 mi NW 4.6 mph - N/A   Clear
9:53 PM 33.1 °F 28.7 °F 10.9 °F 40% 30.28 in 10.0 mi NE 4.6 mph - N/A   Clear
10:53 PM 30.9 °F 26.2 °F 12.0 °F 46% 30.30 in 10.0 mi NNE 4.6 mph - N/A   Clear
11:53 PM 30.9 °F 23.5 °F 10.9 °F 43% 30.31 in 10.0 mi NNE 8.1 mph - N/A   Clear